This is the latest recevied weather packets stored in our database for station/object EA3ANS-1. If no packets are shown the sender has not sent any weather packets the latest 10 day(s).
| Time | Temp. | Humidity | Pressure | Rain* | Wind** | Luminosity | Snow |
|---|---|---|---|---|---|---|---|
| 1787866069 | 27.22° C | - | 1011.1 hPa | 0 mm | 2.68 m/s, 160° | - | - |
| 1787865471 | 27.22° C | - | 1010.8 hPa | 0 mm | 0 m/s | - | - |
| 1787864874 | 27.22° C | - | 1011.5 hPa | 0 mm | 0.89 m/s, 226° | - | - |
| 1787864273 | 27.22° C | - | 1011.3 hPa | 0 mm | 1.34 m/s, 217° | - | - |
| 1787863676 | 27.22° C | - | 1011.4 hPa | 0 mm | 2.24 m/s, 214° | - | - |
| 1787863070 | 27.22° C | - | 1010.8 hPa | 0 mm | 1.34 m/s, 226° | - | - |
| 1787862473 | 27.78° C | - | 1010.8 hPa | 0 mm | 1.34 m/s, 187° | - | - |
| 1787861868 | 27.78° C | - | 1011 hPa | 0 mm | 0.45 m/s, 187° | - | - |
| 1787861266 | 27.78° C | - | 1010.9 hPa | 0 mm | 1.79 m/s, 225° | - | - |
| 1787860669 | 27.78° C | - | 1010.9 hPa | 0 mm | 1.79 m/s, 167° | - | - |
| 1787860065 | 27.78° C | - | 1010.8 hPa | 0 mm | 0.89 m/s, 162° | - | - |
| 1787859461 | 27.78° C | - | 1010.7 hPa | 0 mm | 1.34 m/s, 214° | - | - |
| 1787858864 | 27.78° C | - | 1010.1 hPa | 0 mm | 0.89 m/s, 191° | - | - |
| 1787858266 | 27.78° C | - | 1009.5 hPa | 0 mm | 0.89 m/s, 212° | - | - |
| 1787857657 | 28.33° C | - | 1009.7 hPa | 0 mm | 1.79 m/s, 207° | - | - |
| 1787857051 | 28.33° C | - | 1009.1 hPa | 0 mm | 1.79 m/s, 245° | - | - |
| 1787856453 | 28.33° C | - | 1009.1 hPa | 0 mm | 0.89 m/s, 226° | - | - |
| 1787855853 | 28.89° C | - | 1009.5 hPa | 0 mm | 1.79 m/s, 217° | - | - |
| 1787855252 | 28.89° C | - | 1009.1 hPa | 0 mm | 2.24 m/s, 225° | - | - |
| 1787854655 | 28.89° C | - | 1009.5 hPa | 0 mm | 3.13 m/s, 218° | - | - |
| 1787854056 | 29.44° C | - | 1009.3 hPa | 0 mm | 1.34 m/s, 205° | - | - |
| 1787853453 | 29.44° C | - | 1009.7 hPa | 0 mm | 2.68 m/s, 229° | - | - |
| 1787852855 | 29.44° C | - | 1009.4 hPa | 0 mm | 4.02 m/s, 200° | - | - |
| 1787852253 | 30° C | - | 1009.2 hPa | 0 mm | 2.24 m/s, 141° | - | - |
| 1787851652 | 30° C | - | 1009.4 hPa | 0 mm | 3.13 m/s, 205° | - | - |
* Rain latest hour (hover to see other rain measurements)
** Current wind speed in m/s (hover to see current wind gust speed)